This demonstration page uses our WeatherBlox Daily Observations layout. Learn more.

Left ArrowRight Arrow

39.29038, -76.61219

Hourly Observations for August 18, 2020

Temp ( °F °C ) Dew Point ( °F °C ) Humidity (%) Winds ( mph kmh ) Pressure ( in mb ) Visibility ( mi km ) Precip ( " mm )
12:54 am 00:54 Mostly Clear 68 20 65 18.3 90 90 SW 5 7 29.88 1012 10 16 0.00 0.00
1:54 am 01:54 Mostly Clear 68 20 65 18.3 90 90 S 3 6 29.87 1011 10 16 0.00 0.00
2:54 am 02:54 Mostly Clear 67 19.4 64 17.8 91 91 Calm 29.85 1011 10 16 0.00 0.00
3:54 am 03:54 Clear 66 18.9 64 17.8 93 93 Calm 29.84 1011 10 16 0.00 0.00
4:54 am 04:54 Mostly Clear 65 18.3 63 17.2 93 93 Calm 29.84 1011 9 14 0.00 0.00
5:54 am 05:54 Mostly Clear 65 18.3 63 17.2 93 93 WSW 3 6 29.85 1011 10 16 0.00 0.00
6:54 am 06:54 Mostly Sunny 66 18.9 64 17.8 93 93 Calm 29.86 1011 10 16 0.00 0.00
7:54 am 07:54 Mostly Sunny 70 21.1 63 17.2 79 79 Calm 29.88 1012 10 16 0.00 0.00
8:54 am 08:54 Mostly Sunny 73 22.8 62 16.7 69 69 NW 7 11 29.89 1012 10 16 0.00 0.00
9:54 am 09:54 Mostly Sunny 77 25 63 17.2 62 62 NW 5 7 29.90 1013 10 16 0.00 0.00
10:54 am 10:54 Mostly Sunny 81 27.2 61 16.1 51 51 NNW 8 13 29.91 1013 10 16 0.00 0.00
11:54 am 11:54 Mostly Sunny 83 28.3 62 16.7 49 49 N 5 7 29.90 1012 10 16 0.00 0.00
12:54 pm 12:54 Partly Cloudy 84 28.9 61 16.1 46 46 WNW 9 15 29.89 1012 10 16 0.00 0.00
1:54 pm 13:54 Partly Cloudy 84 28.9 61 16.1 46 46 WNW 8 13 29.88 1012 10 16 0.00 0.00
2:54 pm 14:54 Partly Cloudy 85 29.4 62 16.7 46 46 W 5 7 29.87 1011 10 16 0.00 0.00
3:54 pm 15:54 Partly Cloudy 87 30.6 61 16.1 42 42 Calm 29.85 1011 10 16 0.00 0.00
4:54 pm 16:54 Partly Cloudy 86 30 59 15 40 40 Calm 29.84 1011 10 16 0.00 0.00
5:54 pm 17:54 Mostly Cloudy 85 29.4 60 15.6 43 43 W 7 11 29.84 1011 10 16 0.00 0.00
6:54 pm 18:54 Partly Cloudy 82 27.8 60 15.6 47 47 W 7 11 29.84 1011 10 16 0.00 0.00
7:54 pm 19:54 Mostly Sunny 79 26.1 61 16.1 54 54 Calm 29.86 1011 10 16 0.00 0.00
8:54 pm 20:54 Mostly Clear 74 23.3 63 17.2 69 69 Calm 29.88 1012 10 16 0.00 0.00
9:54 pm 21:54 Mostly Clear 74 23.3 63 17.2 69 69 S 5 7 29.88 1012 10 16 0.00 0.00
10:54 pm 22:54 Mostly Clear 69 20.6 64 17.8 84 84 Calm 29.89 1012 10 16 0.00 0.00
11:54 pm 23:54 Mostly Cloudy 70 21.1 65 18.3 84 84 WSW 3 6 29.89 1012 10 16 0.00 0.00

Powered by AerisWeather